Showing default

IRIDE-MS2-HEO-3, 64568

Orbit data source: Space-Track

IRIDE-MS2-HEO-3, 64568 is an Italian payload satellite in SSO that was launched on Mon, 23 Jun 2025 UTC via an FALCON 9 launch vehicle from the Air Force Western Test Range (AFWTR). Payload-class satellites include a variety of spacecraft equipped with specific instruments for various scientific and technological missions. These include communications satellites like Starlink; space stations such as the ISS; scientific satellites like the Hubble; Earth observation satellites from companies like Planet Labs, Umbra, and HawkEye 360; GPS; miniature CubeSats for education and research; and military/defense satellites.

Loading next visibility...
Identifier
64568, 2025-135AS
Orbit
SSO
Country
Flag of ITIT
Related business
Manufacturer
ArgoTec
Mission
Operational Civil Imaging
Bus & Motor
HAWK, Unknown motor
Mass
65 kg wet, 65 kg dry
Launch date (UTC)
2025-06-23 (11 months ago)
Launch vehicle
FALCON 9
Launch site
Air Force Western Test Range (AFWTR)
Object type
Payload
Rocket body
Debris
Shape & HBR
Box + 2 Pan, 3.0 m
Radar Cross Section
0.683 m², Medium (>0.1 m² and < 1m²)

Expand to show TLE details & history
Last TLE update: 5 hours ago

TLE from 5 hours ago
0 IRIDE-MS2-HEO-3
1 64568U 25135AS  26132.20008579  .00000460  00000-0  51030-4 0  9993
2 64568  97.7690 246.8498 0002230  78.2907 281.8562 14.91887496 48517
Epoch: 2026-05-12T04:48Z
TLE epoch observation values (Epoch: 2026-05-12T04:48:07.412Z)
Latitude
-0°
Longitude
-55.15896°
Altitude
594.773 km
Speed
7.563 km/s
True Right ascension
16h 27m 23s
True Declination
0° 00' 00"
Sunlit
Object was in full shadow at epoch
Visualization orbit readout
Latitude
Unknown
Longitude
Unknown
Altitude
Unknown
Speed
Unknown
Apparent Right ascension
Unknown
Apparent Declination
Unknown
Sunlit
N/A
Visualization observer readout
Local Sidereal Time
18:19:36
Azimuth
Unknown
Elevation
Unknown
Doppler factor
Unknown
Orbital elements
Apogee altitude
590.623 km
Perigee altitude
587.516 km
Semi-major axis
6,967.207 km
Eccentricity
0.00022
Inclination
97.769°
RAAN
246.8498°
Arg. of periapsis
78.2907°
True anomaly
281.83119°
Mean anomaly
281.8562°
Eccentric anomaly
281.8437°
Mean motion
3.73212 °/min
Orbital period
96.46 mins
BSTAR
0.00005103
Loading maneuver chart data...
Computing Atmospheric mass density...
Loading historical data...
Loading historical data...
Loading historical data...
Loading historical data...
Loading historical data...
Loading historical data...
Loading historical data...

Documentation

Showing up to 5 results
|